Home > Weather > Heraklion > Past weeks

Flag for Greece Weather for the Past 2 Weeks in Heraklion, Crete, Greece

Now
72 °F

Scattered clouds.


Feels Like: 77 °F
Forecast: 60 / 70 °F
Wind: 21 mph from South

Location: Heraklion Airport

Current Time: Feb 12, 2016 at 3:03:03 PM

Latest Report: Feb 12, 2016 at 2:20 PM


Visibility: N/A

Pressure: 29.98 "Hg

Humidity: 47%

Dew point: 50 °F

Location of HeraklionLocation

Historic Weather in Heraklion — Graph

°F

Heraklion Temperature Yesterday

Maximum temperature yesterday: 70 °F (at 11:50 AM)
Minimum temperature yesterday: 55 °F (at 11:50 PM)
Average temperature yesterday: 62 °F

High & Low Weather Summary for the Past Weeks

 TemperatureHumidityPressure
High72 °F (Feb 12, 11:50 AM)94% (Jan 30, 10:50 PM)30.39 "Hg (Jan 30, 10:50 PM)
Low43 °F (Feb 9, 12:50 AM)47% (Feb 7, 1:50 AM)29.77 "Hg (Feb 5, 12:50 PM)
Average56 °F71%30.18 "Hg
* Reported Jan 28 1:20 PM — Feb 12 1:50 PM, Heraklion, Weather by CustomWeather, © 2016

Note: Actual official high and low records may vary slightly from our data, if they occured in-between our weather recording intervals... More about our weather records

Advertising

Heraklion Weather History for the Previous 24 Hours

 ConditionsComfort  
Time TempWeatherWind HumidityBarometerVisibility
1:50 PM
Fri, Feb 12
72 °FScattered clouds.21 mph47%29.98 "HgN/A
1:20 PM72 °FPassing clouds.23 mph47%30.01 "HgN/A
12:50 PM72 °FPassing clouds.22 mph47%30.01 "HgN/A
12:20 PM72 °FPassing clouds.22 mph47%30.04 "HgN/A
11:50 AM72 °FScattered clouds.15 mph47%30.04 "HgN/A
11:20 AM70 °FScattered clouds.16 mph50%30.04 "HgN/A
10:50 AM70 °FScattered clouds.14 mph50%30.04 "HgN/A
10:20 AM70 °FScattered clouds.8 mph50%30.04 "HgN/A
9:50 AM66 °FScattered clouds.10 mph60%30.04 "HgN/A
9:20 AM61 °FScattered clouds.12 mph72%30.07 "HgN/A
8:50 AM61 °FScattered clouds.13 mph72%30.07 "HgN/A
8:20 AM57 °FSunny.15 mph72%30.04 "Hg10 mi
7:50 AM55 °FSunny.14 mph82%30.04 "Hg10 mi
7:20 AM55 °FSunny.14 mph72%30.04 "Hg10 mi
6:50 AM55 °FClear.12 mph72%30.04 "Hg10 mi
6:20 AM55 °FPassing clouds.14 mph77%30.01 "HgN/A
5:50 AM55 °FPassing clouds.14 mph77%30.01 "HgN/A
5:20 AM55 °FPassing clouds.14 mph77%30.01 "HgN/A
4:50 AM55 °FPassing clouds.12 mph77%30.01 "HgN/A
3:50 AM54 °FPassing clouds.14 mph88%30.01 "HgN/A
3:20 AM55 °FPassing clouds.12 mph82%30.01 "HgN/A
2:50 AM55 °FPassing clouds.16 mph82%30.01 "HgN/A
2:20 AM55 °FPassing clouds.13 mph82%30.01 "HgN/A
1:50 AM55 °FPassing clouds.12 mph82%30.01 "HgN/A
1:20 AM55 °FPassing clouds.13 mph82%30.01 "HgN/A
12:50 AM55 °FPassing clouds.13 mph82%30.01 "HgN/A
11:50 PM
Thu, Feb 11
55 °FPassing clouds.14 mph82%30.01 "HgN/A
11:20 PM57 °FPassing clouds.14 mph77%30.01 "HgN/A
10:50 PM57 °FPassing clouds.14 mph77%30.01 "HgN/A
10:20 PM57 °FPassing clouds.12 mph77%30.01 "HgN/A
9:50 PM57 °FPassing clouds.12 mph77%30.01 "HgN/A
9:20 PM57 °FPassing clouds.10 mph82%30.01 "HgN/A
8:50 PM57 °FPassing clouds.10 mph82%30.01 "HgN/A
8:20 PM57 °FPassing clouds.14 mph82%30.01 "HgN/A
7:50 PM57 °FPassing clouds.12 mph82%30.01 "HgN/A
7:20 PM59 °FPassing clouds.10 mph77%30.01 "HgN/A
6:50 PM59 °FPassing clouds.8 mph77%30.01 "HgN/A
6:20 PM63 °FPassing clouds.10 mph83%29.98 "HgN/A
5:50 PM63 °FPassing clouds.14 mph83%29.98 "HgN/A
5:20 PM63 °FPassing clouds.9 mph83%29.98 "HgN/A
4:50 PM63 °FPassing clouds.10 mph83%29.98 "HgN/A
4:20 PM68 °FPassing clouds.9 mph60%29.92 "HgN/A
3:50 PM68 °FPassing clouds.7 mph60%29.92 "HgN/A
3:20 PM68 °FPassing clouds.7 mph60%29.92 "HgN/A
Weather by CustomWeather, © 2016

See weather overviewHow to use our weather pages